SCP
0 0 0 0 0 0 -0 0 0 0 0 0 0 0 0 -0 0 0 0 -0 0 0 0 0 0 0 0 0 0 0 0 -0 -0 -0 -0 -0 -0 -0 -0 -0 -0 -0 -0 -0 -0 -0 -0 -0 -0
0 0 0 0 0 -0 -0 0 0 0 0 0 0 0 0 0 0 0 0 -0 -0 0 0 0 0 -0 0 0 0 0 0 -0 -0 -0 -0 -0 -0 -0 -0 -0 -0 -0 -0 -0 -0 -0 -0 -0 -0
0 0 0 0 0 -0 -0 -0 0 0 0 0 -0 0 -0 0 -0 0 -0 -0 -0 -0 0 0 0 -0 -0 -0 0 -0 -0 -0 -0 -0 -0 -0 -0 -0 -0 -0 -0 -0 -0 -0 -0 -0 -0 -0 -0
0 0 0 0 0 0 0 -0 -0 0 0 0 -0 -0 -0 0 -0 -0 -0 -0 -0 -0 0 0 0 -0 -0 -0 -0 -0 -0 -0 -0 -0 -0 -0 -0 -0 -0 -0 -0 -0 -0 -0 -0 -0 -0 -0 -0
0 0 0 0 0 0 0 -0 0 -0 0 0 -0 -0 -0 0 0 -0 -0 -0 -0 -0 0 0 0 -0 -0 -0 -0 -0 -0 -0 -0 -0 -0 -0 -0 -0 -0 -0 -0 -0 -0 -0 -0 -0 -0 -0 -0
0 0 0 0 0 0 0 -0 -0 -0 0 -0 -0 -0 0 0 -0 -0 -0 -0 -0 -0 -0 0 0 0 0 -0 -0 -0 -0 -0 -0 -0 -0 -0 -0 -0 -0 -0 -0 -0 -0 -0 -0 -0 -0 -0 -0
0 0 0 0 0 0 0 0 0 0 -0 0 -0 -0 -0 -0 -0 -0 -0 -0 -0 -0 -0 0 0 0 0 0 -0 -0 -0 -0 -0 -0 -0 -0 -0 -0 -0 -0 -0 -0 -0 -0 -0 -0 -0 -0 -0
0 0 0 0 0 0 0 0 -0 -0 0 0 0 -0 -0 -0 -0 -0 -0 -0 -0 -0 -0 -0 0 0 0 0 -0 -0 -0 -0 -0 -0 -0 -0 -0 -0 -0 -0 -0 -0 -0 -0 -0 -0 -0 -0 -0
0 0 0 0 0 0 0 0 0 0 -0 0 0 -0 0 -0 -0 -0 -0 -0 -0 -0 -0 -0 0 0 0 0 0 -0 -0 -0 -0 0 -0 0 0 0 0 0 -0 -0 -0 -0 -0 -0 -0 -0 -0
0 0 0 0 0 0 0 0 0 0 0 0 0 0 0 -0 -0 -0 -0 -0 -0 -0 -0 -0 -0 0 0 0 0 0 0 0 0 0 0 0 0 0 0 0 -0 -0 -0 -0 -0 -0 -0 0 0
0 0 0 0 0 0 0 0 0 0 0 0 0 0 0 0 -0 -0 -0 -0 -0 -0 -0 -0 -0 -0 -0 0 0 0 0 0 0 0 0 0 0 0 0 0 0 0 0 0 0 0 0 0 0
0 0 0 0 0 0 0 0 0 0 0 0 0 0 0 -0 -0 -0 -0 -0 -0 -0 -0 -0 -0 -0 -0 0 0 0 0 0 0 0 0 0 0 0 0 0 0 0 0 0 0 0 0 0 0
0 0 0 0 0 0 0 0 0 0 0 0 0 0 0 0 -0 -0 -0 -0 -0 -0 -0 -0 -0 -0 -0 0 0 0 0 0 0 0 0 0 0 0 0 0 0 0 0 0 0 0 0 0 0
0 0 0 0 0 0 0 0 0 0 0 0 0 0 0 0 -0 0 0 -0 -0 -0 -0 -0 -0 -0 -0 0 0 0 0 0 0 0 0 0 0 0 0 0 0 0 0 0 0 0 0 0 0
0 0 0 0 0 0 0 0 0 0 0 0 0 0 0 0 0 0 -0 -0 -0 -0 -0 -0 -0 -0 -0 0 0 0 0 0 0 0 0 0 0 0 0 0 0 0 0 0 0 0 0 0 0
0 0 0 0 0 0 0 0 0 0 0 0 0 0 0 0 0 0 0 0 0 0 -0 0 0 -0 -0 0 0 0 0 0 0 0 0 0 0 0 0 0 0 0 0 0 0 0 0 0 0
0 0 0 0 0 0 0 0 0 0 0 0 0 0 0 0 0 0 0 0 0 0 0 0 0 0 0 0 0 0 0 0 0 0 0 0 0 0 0 0 0 0 0 0 0 0 0 0 0
0 0 0 0 0 0 0 0 0 0 0 0 0 0 0 0 0 0 0 0 0 0 0 0 0 0 0 0 0 0 0 0 0 0 0 0 0 0 0 0 0 0 0 0 0 0 0 0 0
0 0 0 0 0 0 0 0 0 0 0 0 0 0 0 0 0 0 0 0 0 0 0 0 0 0 0 0 0 0 0 0 0 0 0 0 0 0 0 0 0 0 0 0 0 0 0 0 0
0 0 0 0 0 0 0 0 0 0 0 0 0 0 0 0 0 0 0 0 0 0 0 0 0 0 0 0 0 0 0 0 0 0 0 0 0 0 0 0 0 0 0 0 0 0 0 0 0
0 0 0 0 0 0 0 0 0 0 0 0 0 0 0 0 0 0 0 0 0 0 0 0 0 0 0 0 0 0 0 0 0 0 0 0 0 0 0 0 0 0 0 0 0 0 0 0 0
0 0 0 0 0 0 0 -0 0 0 0 0 0 0 0 0 0 0 0 0 0 0 0 0 0 0 0 0 0 0 0 0 0 0 0 0 0 0 0 0 0 0 0 0 0 0 0 0 0
0 0 0 0 0 0 0 0 -0 0 0 0 0 0 0 0 0 0 0 0 0 0 0 0 0 0 0 0 0 0 0 0 0 0 0 0 0 0 0 0 0 0 0 0 0 0 0 0 0
0 0 0 0 0 0 0 0 -0 0 -0 0 0 0 0 0 0 0 0 0 0 0 0 0 0 0 0 0 0 0 0 0 0 0 0 0 0 0 0 0 0 0 0 0 0 0 0 0 0
0 0 0 0 0 0 0 0 0 0 0 0 0 0 0 0 0 0 0 0 0 0 0 0 0 0 0 0 0 0 0 0 0 0 0 0 0 0 0 0 0 0 0 0 0 0 0 0 0
0 0 0 0 0 0 0 0 0 -0 0 0 0 0 0 0 0 0 0 0 0 0 0 0 0 0 0 0 0 0 0 0 0 0 0 0 0 0 0 0 0 0 0 0 0 0 0 0 0
0 0 0 0 0 0 0 0 0 0 0 0 0 0 0 0 0 0 0 0 0 0 0 0 0 0 0 0 0 0 0 0 0 0 0 0 0 0 0 0 0 0 0 0 0 0 0 0 0
0 0 0 0 0 0 0 0 0 0 0 0 0 0 0 0 0 0 0 0 0 0 0 0 0 0 0 0 0 0 0 0 0 0 0 0 0 0 0 0 0 0 0 0 0 0 0 0 0
0 0 0 0 0 0 0 0 0 0 0 0 0 0 0 0 0 0 0 0 0 0 0 0 0 0 0 0 0 0 0 0 0 0 0 0 0 0 0 0 0 0 0 0 0 0 0 0 0
0 0 0 0 0 0 0 0 0 0 0 0 0 0 0 0 0 0 0 0 0 0 0 0 0 0 0 0 0 0 0 0 0 0 0 0 0 0 0 0 0 0 0 0 0 0 0 0 0
Wind_Speed_500mb
11 5 6 4 7 9 1 5 1 6 1 3 8 9 13 10 6 6 26 44 41 39 39 28 28 25 23 22 22 22 24 26 25 28 30 19 17 21 25 27 30 34 36 35 37 32 31 31 31
8 6 5 5 9 6 8 6 10 6 13 30 18 14 9 3 8 18 45 37 37 39 39 32 28 24 24 22 22 23 24 24 26 30 31 19 18 22 27 26 29 33 34 34 35 32 30 30 30
7 4 4 8 7 9 8 7 11 12 19 8 7 11 7 8 9 39 34 38 39 40 37 34 29 26 25 22 22 22 23 24 24 26 26 20 19 21 23 23 25 32 33 39 34 32 29 31 34
5 5 9 8 5 6 8 13 14 13 8 8 18 11 8 4 23 29 33 35 38 40 37 35 31 29 27 23 21 19 20 20 22 22 20 16 17 18 19 20 23 29 30 33 31 29 31 33 35
6 5 8 5 6 3 4 14 29 9 11 14 10 7 6 21 21 26 34 36 33 40 39 37 33 30 28 25 23 20 18 17 17 18 17 13 15 17 18 19 21 22 21 22 25 28 24 31 30
1 5 8 3 6 2 1 17 14 11 14 17 13 17 13 35 18 30 36 33 27 38 41 38 35 30 28 26 23 20 18 17 16 15 13 12 12 15 16 18 19 19 17 20 20 18 18 24 28
9 7 8 7 5 3 11 21 10 17 17 12 25 11 10 36 28 31 36 32 27 35 40 40 37 32 28 26 24 21 19 18 16 14 12 11 12 14 16 18 19 17 17 18 16 17 19 21 23
6 10 7 5 8 9 13 23 16 24 13 16 23 10 10 38 35 43 39 38 35 30 39 40 39 36 33 29 25 22 19 17 15 12 10 11 13 15 17 19 18 17 17 15 15 16 16 16 16
6 9 5 6 10 6 21 8 13 11 21 17 21 11 10 44 44 51 48 46 40 39 34 35 39 39 36 33 29 26 22 19 18 16 14 13 14 17 18 18 18 17 17 17 15 14 13 10 9
8 8 16 8 5 8 16 9 21 12 17 13 21 20 18 52 52 61 61 60 55 52 46 40 37 41 42 39 35 32 29 26 22 16 15 15 15 16 18 19 17 17 18 17 15 12 10 8 7
9 11 11 6 5 8 10 4 11 15 6 25 37 32 34 54 58 62 64 61 55 56 53 49 47 43 46 45 41 38 35 32 26 21 15 16 16 16 16 15 14 15 14 12 12 10 7 6 5
8 7 12 10 6 4 6 5 6 25 14 17 32 32 40 54 61 61 63 65 61 60 55 50 49 47 46 47 47 45 42 40 34 29 24 21 17 14 13 12 12 13 12 10 8 6 5 5 3
6 6 10 8 8 8 7 9 10 24 30 14 18 37 42 48 54 56 53 60 63 65 61 58 51 49 46 52 50 48 47 46 42 38 33 30 27 17 14 14 14 13 12 10 8 7 4 3 5
11 9 5 8 7 7 4 6 3 7 16 34 29 31 40 46 49 54 57 60 66 67 68 62 61 50 54 52 52 53 49 48 50 45 42 37 37 26 22 24 25 24 22 19 16 11 11 10 12
8 7 6 10 9 6 9 12 17 32 14 13 40 33 43 47 51 57 51 55 60 66 68 71 67 59 57 58 53 53 58 52 56 54 49 44 42 37 34 33 34 32 30 29 25 23 22 19 21
7 9 4 3 11 2 7 18 11 12 22 31 22 38 42 49 54 57 57 58 60 65 68 67 70 69 62 64 63 60 58 56 50 56 55 54 49 46 46 42 42 38 37 33 32 29 28 29 27
11 6 7 14 13 5 6 14 9 2 1 14 21 28 34 44 51 59 59 61 64 66 69 68 70 71 71 66 67 67 60 60 59 55 61 59 58 53 49 48 45 48 43 41 39 38 38 34 35
12 7 6 8 7 5 6 23 19 32 21 25 29 35 37 41 46 49 51 53 63 67 70 71 70 71 73 72 71 74 73 68 65 60 60 61 62 60 57 55 54 51 50 49 47 46 43 41 40
9 7 8 5 2 7 15 17 22 42 39 42 51 54 55 58 58 59 55 54 58 67 73 74 75 76 79 85 83 83 81 76 72 65 62 63 62 63 63 62 59 59 55 56 55 55 52 54 50
7 6 6 8 1 9 8 20 21 24 31 57 63 70 73 71 70 67 61 61 64 63 69 75 76 78 80 86 86 87 82 82 75 69 60 65 62 66 69 61 62 61 64 64 67 61 62 58 57
6 9 7 12 6 4 10 16 15 12 26 57 64 70 69 67 60 44 41 55 65 68 64 69 75 76 79 87 92 93 89 86 81 75 69 68 66 64 75 70 72 64 71 67 67 67 75 62 68
9 13 8 6 6 8 2 12 11 11 15 13 49 53 61 58 59 57 41 31 51 64 66 64 71 78 78 84 90 94 94 90 86 71 69 69 67 75 72 74 76 73 70 72 68 72 75 65 77
13 10 7 4 5 3 4 4 13 6 12 21 37 44 44 45 37 27 29 32 36 46 55 58 64 74 75 78 82 86 92 92 87 74 71 68 67 77 79 78 78 80 76 69 72 78 88 69 86
17 14 13 9 5 7 14 14 9 10 14 9 15 11 24 22 13 19 18 23 27 29 38 41 52 64 65 69 75 79 84 84 73 68 69 69 70 75 74 90 85 76 95 78 82 82 91 76 80
6 14 2 5 1 15 3 4 11 14 19 11 21 27 32 17 8 3 6 10 15 18 25 34 38 49 55 57 61 65 68 69 64 66 65 66 70 76 78 80 90 74 95 79 96 97 77 86 79
17 18 12 16 9 9 6 14 12 16 25 19 21 20 17 12 4 2 2 5 9 12 15 22 30 38 43 44 44 49 53 58 60 60 63 65 62 61 66 69 82 89 88 93 87 88 89 92 87
12 14 12 12 6 6 9 14 18 17 7 12 21 23 20 15 12 7 8 11 12 15 20 26 29 31 32 35 38 39 43 47 50 51 54 55 54 52 56 63 71 69 76 79 81 83 85 84 81
13 17 7 4 6 7 10 10 15 5 9 11 19 32 18 4 7 7 6 7 8 12 15 18 19 22 24 23 23 24 28 33 34 37 39 42 44 48 52 56 62 69 71 73 74 79 79 81 79
6 8 5 10 11 11 5 14 11 10 9 11 10 23 21 10 4 4 9 12 14 14 14 15 15 16 14 13 11 11 12 15 20 25 28 32 36 40 45 50 55 59 62 68 72 74 79 82 77
4 13 15 10 9 7 7 24 6 12 15 18 14 17 18 20 14 5 9 12 9 9 14 15 18 20 13 9 4 3 7 15 21 25 29 31 32 36 41 47 53 56 59 56 61 64 67 73 77
Wind_Direction_500mb
250 247 229 264 57 64 189 233 357 147 111 109 160 152 154 86 149 210 148 162 166 170 175 171 163 150 144 132 121 111 105 106 103 104 113 100 83 78 84 91 94 98 96 91 88 93 86 84 83
229 213 212 128 91 75 268 261 166 208 132 113 88 92 69 87 127 147 150 161 171 172 173 170 166 152 148 135 125 117 111 106 102 110 111 112 94 84 87 93 98 99 97 89 94 91 83 79 80
190 205 205 92 109 167 192 203 186 152 151 153 102 76 87 139 167 160 162 159 170 179 173 169 166 158 152 142 133 125 119 113 108 116 115 118 94 85 90 97 102 105 101 91 100 93 87 82 84
180 176 66 86 186 220 201 176 181 145 128 115 132 69 99 162 159 167 166 164 170 180 175 173 169 162 156 150 143 132 123 117 113 116 118 111 96 96 97 100 107 111 107 111 104 98 87 87 92
193 108 62 55 295 288 220 175 160 161 139 126 143 159 101 151 164 174 170 168 176 181 179 179 175 169 163 159 153 145 136 126 117 114 115 109 100 103 108 110 116 120 116 114 117 108 100 96 99
188 86 70 177 259 325 73 172 171 157 144 145 125 132 141 169 187 175 177 176 181 189 184 185 182 177 171 167 162 157 151 144 136 127 119 109 103 106 112 117 121 124 122 113 120 109 95 89 98
125 81 172 172 208 160 199 189 205 155 153 185 153 131 182 191 189 184 180 175 179 190 191 189 188 184 180 175 172 169 165 158 151 142 131 123 120 121 124 125 127 127 116 119 116 105 101 102 106
117 92 130 241 194 224 177 169 194 162 180 161 172 183 193 184 180 176 174 179 188 198 197 196 194 193 189 185 183 181 177 171 164 154 144 137 134 132 130 130 129 120 113 110 104 99 102 108 112
115 65 165 217 163 230 164 144 174 186 152 176 192 218 216 180 178 177 178 187 191 196 205 201 204 202 199 195 190 188 186 183 178 170 156 151 149 145 141 135 125 115 113 110 108 103 97 91 100
105 119 208 214 218 209 180 164 165 164 161 197 196 206 191 181 185 185 189 191 192 195 200 209 212 213 207 203 200 196 196 193 184 178 166 162 160 155 151 146 139 133 127 120 115 108 102 95 102
149 180 195 231 229 179 166 149 177 158 236 207 204 200 188 185 191 195 201 203 202 199 203 204 211 219 217 211 207 204 202 198 192 186 182 173 165 168 163 170 163 148 141 123 118 114 103 89 84
139 210 167 172 209 190 176 189 205 203 216 233 228 217 198 192 197 201 207 210 209 207 209 208 210 218 219 222 218 212 208 204 206 197 194 199 185 172 184 183 178 167 167 159 149 142 118 112 108
160 180 190 196 203 254 232 246 255 246 234 210 199 209 210 207 209 210 215 215 215 214 214 218 216 218 214 219 224 227 216 212 210 208 207 210 213 204 210 216 217 209 204 207 209 203 205 164 172
208 153 165 212 218 249 221 277 245 283 230 225 222 212 215 220 223 216 215 220 221 220 222 221 223 225 219 221 224 225 226 225 217 216 214 214 215 218 220 227 223 219 222 227 228 225 212 209 207
116 110 337 213 211 243 198 286 237 245 268 235 227 220 223 230 230 230 232 229 226 226 225 224 226 228 227 225 228 222 225 227 227 223 219 220 220 220 227 234 227 228 228 224 226 224 212 216 211
71 49 93 302 160 232 154 267 271 304 244 237 237 226 231 233 237 240 237 238 236 231 228 228 228 230 230 230 228 228 229 231 230 230 226 224 225 227 228 229 230 233 234 236 239 233 227 216 217
12 193 193 316 197 132 160 265 269 4 269 253 239 242 244 247 244 242 241 241 239 238 234 231 231 233 232 235 233 235 232 236 238 238 233 229 229 231 233 235 236 236 241 237 239 239 230 227 217
192 201 214 231 211 144 183 264 275 274 277 279 278 269 259 254 252 251 249 247 244 242 239 236 234 235 234 235 236 235 237 238 237 242 238 238 233 234 236 235 239 241 243 240 241 241 234 232 229
142 156 190 232 197 166 224 257 268 275 285 274 272 269 267 266 265 258 250 247 246 243 241 237 234 234 233 232 232 233 234 238 239 242 243 240 240 238 241 240 241 241 248 247 247 242 234 228 225
125 158 242 295 287 173 282 265 265 269 264 268 270 272 271 270 270 269 262 249 243 240 242 240 236 235 235 236 237 236 235 237 240 243 244 249 246 242 236 241 241 243 250 246 248 248 243 243 233
187 175 206 223 348 344 342 282 257 273 249 263 265 267 272 269 274 285 276 248 241 238 240 240 238 236 236 237 236 237 234 239 237 243 245 244 244 245 247 242 240 240 258 247 249 249 247 256 236
212 198 186 175 89 245 9 283 293 254 266 285 270 267 270 273 277 281 278 270 242 241 240 242 240 238 237 237 238 239 241 241 243 246 252 249 255 246 249 246 245 244 253 250 250 254 249 255 247
212 130 150 71 105 349 297 306 272 307 276 263 258 270 286 290 281 274 267 240 239 242 237 238 239 236 237 239 241 242 242 244 251 253 254 252 254 253 248 250 250 252 244 256 248 256 246 252 251
149 86 54 65 80 291 189 183 233 199 217 273 281 298 335 330 274 259 262 250 245 255 230 237 238 233 236 240 242 242 243 245 252 255 257 255 253 253 255 255 248 258 242 252 250 252 256 260 254
120 95 10 340 41 236 352 179 268 273 249 234 275 302 325 316 325 300 233 225 232 243 235 238 229 227 231 238 243 245 246 246 253 256 259 260 263 262 258 257 262 257 250 248 252 256 250 246 266
187 158 170 198 197 252 86 235 256 242 287 295 296 294 312 318 307 150 183 217 234 236 230 223 220 224 232 238 244 246 247 246 250 254 259 264 262 258 258 257 258 252 252 254 252 252 248 258 255
189 202 170 105 23 53 218 288 296 276 290 4 0 351 327 292 266 241 226 219 210 215 221 224 229 234 241 242 242 243 245 249 254 258 260 262 263 261 254 251 253 257 257 255 254 254 257 258 260
169 148 86 9 158 248 260 262 229 174 230 23 13 14 10 321 222 241 253 248 230 231 233 232 227 222 223 227 231 234 239 247 254 259 264 267 266 263 260 256 253 251 253 255 257 260 260 260 262
149 179 167 145 158 190 251 256 218 231 139 104 38 40 34 46 60 257 268 273 275 263 238 208 185 172 174 179 197 221 244 260 272 279 280 278 273 268 263 260 259 258 258 256 256 259 259 259 262
290 214 172 176 219 237 166 252 122 128 130 111 74 64 51 46 41 347 277 271 253 181 151 144 135 124 130 127 145 238 284 297 298 298 293 287 284 275 269 264 261 260 259 258 253 257 263 263 263
Wind_Speed_850mb
11 5 6 4 7 9 1 5 1 6 1 3 8 9 13 10 6 6 26 44 41 39 39 28 28 25 23 22 22 22 24 26 25 28 30 19 17 21 25 27 30 34 36 35 37 32 31 31 31
8 6 5 5 9 6 8 6 10 6 13 30 18 14 9 3 8 18 45 37 37 39 39 32 28 24 24 22 22 23 24 24 26 30 31 19 18 22 27 26 29 33 34 34 35 32 30 30 30
7 4 4 8 7 9 8 7 11 12 19 8 7 11 7 8 9 39 34 38 39 40 37 34 29 26 25 22 22 22 23 24 24 26 26 20 19 21 23 23 25 32 33 39 34 32 29 31 34
5 5 9 8 5 6 8 13 14 13 8 8 18 11 8 4 23 29 33 35 38 40 37 35 31 29 27 23 21 19 20 20 22 22 20 16 17 18 19 20 23 29 30 33 31 29 31 33 35
6 5 8 5 6 3 4 14 29 9 11 14 10 7 6 21 21 26 34 36 33 40 39 37 33 30 28 25 23 20 18 17 17 18 17 13 15 17 18 19 21 22 21 22 25 28 24 31 30
1 5 8 3 6 2 1 17 14 11 14 17 13 17 13 35 18 30 36 33 27 38 41 38 35 30 28 26 23 20 18 17 16 15 13 12 12 15 16 18 19 19 17 20 20 18 18 24 28
9 7 8 7 5 3 11 21 10 17 17 12 25 11 10 36 28 31 36 32 27 35 40 40 37 32 28 26 24 21 19 18 16 14 12 11 12 14 16 18 19 17 17 18 16 17 19 21 23
6 10 7 5 8 9 13 23 16 24 13 16 23 10 10 38 35 43 39 38 35 30 39 40 39 36 33 29 25 22 19 17 15 12 10 11 13 15 17 19 18 17 17 15 15 16 16 16 16
6 9 5 6 10 6 21 8 13 11 21 17 21 11 10 44 44 51 48 46 40 39 34 35 39 39 36 33 29 26 22 19 18 16 14 13 14 17 18 18 18 17 17 17 15 14 13 10 9
8 8 16 8 5 8 16 9 21 12 17 13 21 20 18 52 52 61 61 60 55 52 46 40 37 41 42 39 35 32 29 26 22 16 15 15 15 16 18 19 17 17 18 17 15 12 10 8 7
9 11 11 6 5 8 10 4 11 15 6 25 37 32 34 54 58 62 64 61 55 56 53 49 47 43 46 45 41 38 35 32 26 21 15 16 16 16 16 15 14 15 14 12 12 10 7 6 5
8 7 12 10 6 4 6 5 6 25 14 17 32 32 40 54 61 61 63 65 61 60 55 50 49 47 46 47 47 45 42 40 34 29 24 21 17 14 13 12 12 13 12 10 8 6 5 5 3
6 6 10 8 8 8 7 9 10 24 30 14 18 37 42 48 54 56 53 60 63 65 61 58 51 49 46 52 50 48 47 46 42 38 33 30 27 17 14 14 14 13 12 10 8 7 4 3 5
11 9 5 8 7 7 4 6 3 7 16 34 29 31 40 46 49 54 57 60 66 67 68 62 61 50 54 52 52 53 49 48 50 45 42 37 37 26 22 24 25 24 22 19 16 11 11 10 12
8 7 6 10 9 6 9 12 17 32 14 13 40 33 43 47 51 57 51 55 60 66 68 71 67 59 57 58 53 53 58 52 56 54 49 44 42 37 34 33 34 32 30 29 25 23 22 19 21
7 9 4 3 11 2 7 18 11 12 22 31 22 38 42 49 54 57 57 58 60 65 68 67 70 69 62 64 63 60 58 56 50 56 55 54 49 46 46 42 42 38 37 33 32 29 28 29 27
11 6 7 14 13 5 6 14 9 2 1 14 21 28 34 44 51 59 59 61 64 66 69 68 70 71 71 66 67 67 60 60 59 55 61 59 58 53 49 48 45 48 43 41 39 38 38 34 35
12 7 6 8 7 5 6 23 19 32 21 25 29 35 37 41 46 49 51 53 63 67 70 71 70 71 73 72 71 74 73 68 65 60 60 61 62 60 57 55 54 51 50 49 47 46 43 41 40
9 7 8 5 2 7 15 17 22 42 39 42 51 54 55 58 58 59 55 54 58 67 73 74 75 76 79 85 83 83 81 76 72 65 62 63 62 63 63 62 59 59 55 56 55 55 52 54 50
7 6 6 8 1 9 8 20 21 24 31 57 63 70 73 71 70 67 61 61 64 63 69 75 76 78 80 86 86 87 82 82 75 69 60 65 62 66 69 61 62 61 64 64 67 61 62 58 57
6 9 7 12 6 4 10 16 15 12 26 57 64 70 69 67 60 44 41 55 65 68 64 69 75 76 79 87 92 93 89 86 81 75 69 68 66 64 75 70 72 64 71 67 67 67 75 62 68
9 13 8 6 6 8 2 12 11 11 15 13 49 53 61 58 59 57 41 31 51 64 66 64 71 78 78 84 90 94 94 90 86 71 69 69 67 75 72 74 76 73 70 72 68 72 75 65 77
13 10 7 4 5 3 4 4 13 6 12 21 37 44 44 45 37 27 29 32 36 46 55 58 64 74 75 78 82 86 92 92 87 74 71 68 67 77 79 78 78 80 76 69 72 78 88 69 86
17 14 13 9 5 7 14 14 9 10 14 9 15 11 24 22 13 19 18 23 27 29 38 41 52 64 65 69 75 79 84 84 73 68 69 69 70 75 74 90 85 76 95 78 82 82 91 76 80
6 14 2 5 1 15 3 4 11 14 19 11 21 27 32 17 8 3 6 10 15 18 25 34 38 49 55 57 61 65 68 69 64 66 65 66 70 76 78 80 90 74 95 79 96 97 77 86 79
17 18 12 16 9 9 6 14 12 16 25 19 21 20 17 12 4 2 2 5 9 12 15 22 30 38 43 44 44 49 53 58 60 60 63 65 62 61 66 69 82 89 88 93 87 88 89 92 87
12 14 12 12 6 6 9 14 18 17 7 12 21 23 20 15 12 7 8 11 12 15 20 26 29 31 32 35 38 39 43 47 50 51 54 55 54 52 56 63 71 69 76 79 81 83 85 84 81
13 17 7 4 6 7 10 10 15 5 9 11 19 32 18 4 7 7 6 7 8 12 15 18 19 22 24 23 23 24 28 33 34 37 39 42 44 48 52 56 62 69 71 73 74 79 79 81 79
6 8 5 10 11 11 5 14 11 10 9 11 10 23 21 10 4 4 9 12 14 14 14 15 15 16 14 13 11 11 12 15 20 25 28 32 36 40 45 50 55 59 62 68 72 74 79 82 77
4 13 15 10 9 7 7 24 6 12 15 18 14 17 18 20 14 5 9 12 9 9 14 15 18 20 13 9 4 3 7 15 21 25 29 31 32 36 41 47 53 56 59 56 61 64 67 73 77
Wind_Direction_850mb
250 247 229 264 57 64 189 233 357 147 111 109 160 152 154 86 149 210 148 162 166 170 175 171 163 150 144 132 121 111 105 106 103 104 113 100 83 78 84 91 94 98 96 91 88 93 86 84 83
229 213 212 128 91 75 268 261 166 208 132 113 88 92 69 87 127 147 150 161 171 172 173 170 166 152 148 135 125 117 111 106 102 110 111 112 94 84 87 93 98 99 97 89 94 91 83 79 80
190 205 205 92 109 167 192 203 186 152 151 153 102 76 87 139 167 160 162 159 170 179 173 169 166 158 152 142 133 125 119 113 108 116 115 118 94 85 90 97 102 105 101 91 100 93 87 82 84
180 176 66 86 186 220 201 176 181 145 128 115 132 69 99 162 159 167 166 164 170 180 175 173 169 162 156 150 143 132 123 117 113 116 118 111 96 96 97 100 107 111 107 111 104 98 87 87 92
193 108 62 55 295 288 220 175 160 161 139 126 143 159 101 151 164 174 170 168 176 181 179 179 175 169 163 159 153 145 136 126 117 114 115 109 100 103 108 110 116 120 116 114 117 108 100 96 99
188 86 70 177 259 325 73 172 171 157 144 145 125 132 141 169 187 175 177 176 181 189 184 185 182 177 171 167 162 157 151 144 136 127 119 109 103 106 112 117 121 124 122 113 120 109 95 89 98
125 81 172 172 208 160 199 189 205 155 153 185 153 131 182 191 189 184 180 175 179 190 191 189 188 184 180 175 172 169 165 158 151 142 131 123 120 121 124 125 127 127 116 119 116 105 101 102 106
117 92 130 241 194 224 177 169 194 162 180 161 172 183 193 184 180 176 174 179 188 198 197 196 194 193 189 185 183 181 177 171 164 154 144 137 134 132 130 130 129 120 113 110 104 99 102 108 112
115 65 165 217 163 230 164 144 174 186 152 176 192 218 216 180 178 177 178 187 191 196 205 201 204 202 199 195 190 188 186 183 178 170 156 151 149 145 141 135 125 115 113 110 108 103 97 91 100
105 119 208 214 218 209 180 164 165 164 161 197 196 206 191 181 185 185 189 191 192 195 200 209 212 213 207 203 200 196 196 193 184 178 166 162 160 155 151 146 139 133 127 120 115 108 102 95 102
149 180 195 231 229 179 166 149 177 158 236 207 204 200 188 185 191 195 201 203 202 199 203 204 211 219 217 211 207 204 202 198 192 186 182 173 165 168 163 170 163 148 141 123 118 114 103 89 84
139 210 167 172 209 190 176 189 205 203 216 233 228 217 198 192 197 201 207 210 209 207 209 208 210 218 219 222 218 212 208 204 206 197 194 199 185 172 184 183 178 167 167 159 149 142 118 112 108
160 180 190 196 203 254 232 246 255 246 234 210 199 209 210 207 209 210 215 215 215 214 214 218 216 218 214 219 224 227 216 212 210 208 207 210 213 204 210 216 217 209 204 207 209 203 205 164 172
208 153 165 212 218 249 221 277 245 283 230 225 222 212 215 220 223 216 215 220 221 220 222 221 223 225 219 221 224 225 226 225 217 216 214 214 215 218 220 227 223 219 222 227 228 225 212 209 207
116 110 337 213 211 243 198 286 237 245 268 235 227 220 223 230 230 230 232 229 226 226 225 224 226 228 227 225 228 222 225 227 227 223 219 220 220 220 227 234 227 228 228 224 226 224 212 216 211
71 49 93 302 160 232 154 267 271 304 244 237 237 226 231 233 237 240 237 238 236 231 228 228 228 230 230 230 228 228 229 231 230 230 226 224 225 227 228 229 230 233 234 236 239 233 227 216 217
12 193 193 316 197 132 160 265 269 4 269 253 239 242 244 247 244 242 241 241 239 238 234 231 231 233 232 235 233 235 232 236 238 238 233 229 229 231 233 235 236 236 241 237 239 239 230 227 217
192 201 214 231 211 144 183 264 275 274 277 279 278 269 259 254 252 251 249 247 244 242 239 236 234 235 234 235 236 235 237 238 237 242 238 238 233 234 236 235 239 241 243 240 241 241 234 232 229
142 156 190 232 197 166 224 257 268 275 285 274 272 269 267 266 265 258 250 247 246 243 241 237 234 234 233 232 232 233 234 238 239 242 243 240 240 238 241 240 241 241 248 247 247 242 234 228 225
125 158 242 295 287 173 282 265 265 269 264 268 270 272 271 270 270 269 262 249 243 240 242 240 236 235 235 236 237 236 235 237 240 243 244 249 246 242 236 241 241 243 250 246 248 248 243 243 233
187 175 206 223 348 344 342 282 257 273 249 263 265 267 272 269 274 285 276 248 241 238 240 240 238 236 236 237 236 237 234 239 237 243 245 244 244 245 247 242 240 240 258 247 249 249 247 256 236
212 198 186 175 89 245 9 283 293 254 266 285 270 267 270 273 277 281 278 270 242 241 240 242 240 238 237 237 238 239 241 241 243 246 252 249 255 246 249 246 245 244 253 250 250 254 249 255 247
212 130 150 71 105 349 297 306 272 307 276 263 258 270 286 290 281 274 267 240 239 242 237 238 239 236 237 239 241 242 242 244 251 253 254 252 254 253 248 250 250 252 244 256 248 256 246 252 251
149 86 54 65 80 291 189 183 233 199 217 273 281 298 335 330 274 259 262 250 245 255 230 237 238 233 236 240 242 242 243 245 252 255 257 255 253 253 255 255 248 258 242 252 250 252 256 260 254
120 95 10 340 41 236 352 179 268 273 249 234 275 302 325 316 325 300 233 225 232 243 235 238 229 227 231 238 243 245 246 246 253 256 259 260 263 262 258 257 262 257 250 248 252 256 250 246 266
187 158 170 198 197 252 86 235 256 242 287 295 296 294 312 318 307 150 183 217 234 236 230 223 220 224 232 238 244 246 247 246 250 254 259 264 262 258 258 257 258 252 252 254 252 252 248 258 255
189 202 170 105 23 53 218 288 296 276 290 4 0 351 327 292 266 241 226 219 210 215 221 224 229 234 241 242 242 243 245 249 254 258 260 262 263 261 254 251 253 257 257 255 254 254 257 258 260
169 148 86 9 158 248 260 262 229 174 230 23 13 14 10 321 222 241 253 248 230 231 233 232 227 222 223 227 231 234 239 247 254 259 264 267 266 263 260 256 253 251 253 255 257 260 260 260 262
149 179 167 145 158 190 251 256 218 231 139 104 38 40 34 46 60 257 268 273 275 263 238 208 185 172 174 179 197 221 244 260 272 279 280 278 273 268 263 260 259 258 258 256 256 259 259 259 262
290 214 172 176 219 237 166 252 122 128 130 111 74 64 51 46 41 347 277 271 253 181 151 144 135 124 130 127 145 238 284 297 298 298 293 287 284 275 269 264 261 260 259 258 253 257 263 263 263